Location: Barcelona
(41.3830°N, 2.1830°E)
Time: 20:56:09
(UTC+01:00)

ISS - Pass Details

Date: 01 March 2021
Orbit: 417 x 422 km, 51.6° (Epoch: 26 February)

Event Time Altitude Azimuth Distance (km) Brightness Sun altitude
Exits shadow 06:26:49 - 319° (NW) 1,550 -1.3 -11.8°
Reaches altitude 10° 06:27:02 10° 322° (NW) 1,498 -1.3 -11.8°
Maximum altitude 06:28:58 14° 357° (N) 1,262 -1.4 -11.4°
Drops below altitude 10° 06:30:53 10° 33° (NNE) 1,499 -0.5 -11.1°
Sets 06:33:45 0° 59° (ENE) 2,364 1.1 -10.5°
